Location: Canberra
(35.2820°S, 149.1287°E)
Time: 09:54:31
(UTC+10:00)

ISS - Pass Details

Date: 07 February 2016
Orbit: 400 x 410 km, 51.6° (Epoch: 29 September)

Event Time Altitude Azimuth Distance (km) Brightness Sun altitude
Exits shadow 04:00:12 - 68° (ENE) 1,746 0.1 -26.1°
Enters shadow 04:57:17 -71° 309° (NW) 12,464 4.2 -17.2°
Maximum altitude 05:35:29 88° 218° (SW) 411 -3.4 -10.6°
